{"data":{"norad_id":66016,"intl_designator":"2025-232M","name":"STARLINK-35243","alt_names":[],"object_type":"PAYLOAD","status":"ACTIVE","operator":null,"country":"US","launch_date":"2025-10-16","launch_site_code":"AFETR","launch_vehicle":null,"mission":null,"orbit_class":"UNKNOWN","rcs_meters":null,"size_class":null,"mass_kg":null,"dimensions":null,"purposes":["comms"],"wikipedia_slug":null,"has_3d_model":false,"image_url":null,"decayed_at":null,"tle_current":{"epoch":"2026-09-20T05:31:39.795744Z","epoch_age_seconds":126439,"freshness":"FRESH","line1":"1 66016U 25232M   26263.23032171  .00020459  00000+0  61498-3 0  9991","line2":"2 66016  53.1600 277.2332 0001711  91.5680 268.5519 15.34400001 53261","mean_motion":15.34400001,"eccentricity":0.0001711,"inclination_deg":53.16,"raan_deg":277.2332,"arg_perigee_deg":91.568,"mean_anomaly_deg":268.5519,"bstar":0.00061498,"rev_number":5326,"period_min":93.847758020172,"perigee_km":461.5327694703,"apogee_km":463.87370499949,"semimajor_km":6840.8402372349,"source":"CELESTRAK","updated_at":"2026-09-21T09:00:35.770444Z"}}}